COSMOS 2491 DEB, 45129

Orbit data source: Space-Track

COSMOS 2491 DEB, 45129 is space debris in LEO originally from a launch on Wed, 25 Dec 2013 UTC launched from the Plesetsk Missile And Space Complex (PKMTR). Debris objects in space refer to the collection of defunct objects orbiting the Earth. Examples of debris include non-operational satellites, rocket bodies, and fragments generated from explosions, collisions, or faulty payload assembly.

Loading next visibility...
Identifier
45129, 2013-076AB
Orbit
LEO
Country
Flag of CISCIS
Related business
Manufacturer
TsNIIKhM
Mission
Spacecraft
Bus & Motor
Unknown
Mass
Unknown
Launch date (UTC)
2013-12-25 (12 years ago)
Launch vehicle
Unknown
Launch site
Plesetsk Missile And Space Complex (PKMTR)
Object type
Payload
Rocket body
Debris
Shape & HBR
Unknown shape, 0.1 m
Radar Cross Section
Small (<0.1 m²)

Expand to show TLE details & history
Last TLE update: 2 days ago

TLE from 2 days ago
0 COSMOS 2491 DEB
1 45129U 13076AB  26105.36672475  .00002480  00000-0  12345-1 0  9992
2 45129  82.4691 152.7871 0110168 247.7426 111.1956 12.68850992151116
Epoch: 2026-04-15T08:48Z
TLE epoch observation values (Epoch: 2026-04-15T08:48:05.018Z)
Latitude
0.00002°
Longitude
177.23655°
Altitude
1,421.108 km
Speed
7.136 km/s
True Right ascension
10h 11m 08s
True Declination
0° 00' 00"
Sunlit
Object was in full shadow at epoch
Visualization orbit readout
Latitude
Unknown
Longitude
Unknown
Altitude
Unknown
Speed
Unknown
Apparent Right ascension
Unknown
Apparent Declination
Unknown
Sunlit
N/A
Visualization observer readout
Local Sidereal Time
05:09:10
Azimuth
Unknown
Elevation
Unknown
Doppler factor
Unknown
Orbital elements
Apogee altitude
1,469.452 km
Perigee altitude
1,298.426 km
Semi-major axis
7,762.076 km
Eccentricity
0.01102
Inclination
82.4691°
RAAN
152.7871°
Arg. of periapsis
247.7426°
True anomaly
112.36672°
Mean anomaly
111.1956°
Eccentric anomaly
111.78175°
Mean motion
3.17378 °/min
Orbital period
113.43 mins
BSTAR
0.012345
Loading maneuver chart data...
Computing Atmospheric mass density...
Loading historical data...
Loading historical data...
Loading historical data...
Loading historical data...
Loading historical data...
Loading historical data...
Loading historical data...

Documentation

Showing up to 5 results
|